When you browse on this site, cookies collect data to enhance your experience and personalize the content and advertising you see.
Visit our Privacy Policy to learn more. By continuing to use the site, you agree to this use of cookies and data.
  • In Romania
  • List of Countries
  • For 7 days
  • Water Temperature
  • Satellite Maps
  • Weather Map
  • Weather Widgets
  • user-avatar
    Login

    Hourly Weather Shardzha

    Today, 25 May, Saturday

    Time Temperature Precipitation Wind Pressure Humidity
    00:00 +31°C° 0 mm 0 mps 755 mmHg 38%
    01:00 +30°C° 0 mm 0 mps 755 mmHg 38%
    02:00 +32°C° 0 mm 1 mps 755 mmHg 38%
    03:00 +32°C° 0 mm 1 mps 755 mmHg 38%
    04:00 +31°C° 0 mm 1 mps 754 mmHg 39%
    05:00 +32°C° 0 mm 1 mps 755 mmHg 39%
    06:00 +32°C° 0 mm 2 mps 755 mmHg 39%
    07:00 +32°C° 0 mm 2 mps 755 mmHg 38%
    08:00 +35°C° 0 mm 2 mps 755 mmHg 34%
    09:00 +36°C° 0 mm 1 mps 755 mmHg 29%
    10:00 +37°C° 0 mm 1 mps 756 mmHg 24%
    11:00 +40°C° 0 mm 1 mps 756 mmHg 22%
    12:00 +41°C° 0 mm 2 mps 755 mmHg 20%
    13:00 +43°C° 0 mm 3 mps 755 mmHg 17%
    14:00 +43°C° 0 mm 4 mps 755 mmHg 19%
    15:00 +42°C° 0 mm 5 mps 754 mmHg 20%
    16:00 +42°C° 0 mm 5 mps 754 mmHg 22%
    17:00 +41°C° 0 mm 5 mps 754 mmHg 25%
    18:00 +38°C° 0 mm 4 mps 754 mmHg 27%
    19:00 +37°C° 0 mm 4 mps 754 mmHg 30%
    20:00 +37°C° 0 mm 3 mps 754 mmHg 31%
    21:00 +36°C° 0 mm 2 mps 754 mmHg 31%
    22:00 +35°C° 0 mm 1 mps 754 mmHg 31%
    23:00 +35°C° 0 mm 1 mps 754 mmHg 31%

    Tomorrow, 26 May, Sunday

    Time Temperature Precipitation Wind Pressure Humidity
    00:00 +34°C° 0 mm 1 mps 754 mmHg 31%
    01:00 +34°C° 0 mm 1 mps 754 mmHg 32%
    02:00 +34°C° 0 mm 1 mps 753 mmHg 32%
    03:00 +33°C° 0 mm 1 mps 753 mmHg 32%
    04:00 +34°C° 0 mm 2 mps 753 mmHg 33%
    05:00 +35°C° 0 mm 2 mps 753 mmHg 31%
    06:00 +35°C° 0 mm 2 mps 754 mmHg 30%
    07:00 +36°C° 0 mm 2 mps 754 mmHg 29%
    08:00 +38°C° 0 mm 2 mps 754 mmHg 26%
    09:00 +40°C° 0 mm 2 mps 754 mmHg 23%
    10:00 +42°C° 0 mm 2 mps 754 mmHg 19%
    11:00 +44°C° 0 mm 3 mps 754 mmHg 18%
    12:00 +44°C° 0 mm 3 mps 754 mmHg 16%
    13:00 +45°C° 0 mm 3 mps 754 mmHg 14%
    14:00 +45°C° 0 mm 4 mps 753 mmHg 16%
    15:00 +46°C° 0 mm 5 mps 753 mmHg 17%
    16:00 +45°C° 0 mm 6 mps 753 mmHg 19%
    17:00 +44°C° 0 mm 6 mps 752 mmHg 21%
    18:00 +42°C° 0 mm 5 mps 752 mmHg 22%
    19:00 +41°C° 0 mm 5 mps 752 mmHg 24%
    20:00 +40°C° 0 mm 4 mps 753 mmHg 26%
    21:00 +38°C° 0 mm 4 mps 753 mmHg 28%
    22:00 +38°C° 0 mm 3 mps 753 mmHg 29%
    23:00 +37°C° 0 mm 3 mps 753 mmHg 30%

    Day after tomorrow, 27 May, Monday

    Time Temperature Precipitation Wind Pressure Humidity
    00:00 +37°C° 0 mm 3 mps 753 mmHg 31%
    01:00 +36°C° 0 mm 3 mps 753 mmHg 31%
    02:00 +36°C° 0 mm 3 mps 752 mmHg 31%
    03:00 +36°C° 0 mm 3 mps 752 mmHg 31%
    04:00 +35°C° 0 mm 2 mps 752 mmHg 32%
    05:00 +36°C° 0 mm 2 mps 752 mmHg 29%
    06:00 +37°C° 0 mm 2 mps 752 mmHg 26%
    07:00 +37°C° 0 mm 2 mps 753 mmHg 24%
    08:00 +39°C° 0 mm 3 mps 753 mmHg 24%
    09:00 +42°C° 0 mm 4 mps 753 mmHg 24%
    10:00 +43°C° 0 mm 5 mps 754 mmHg 24%
    11:00 +44°C° 0 mm 4 mps 754 mmHg 22%
    12:00 +45°C° 0 mm 3 mps 753 mmHg 19%
    13:00 +46°C° 0 mm 2 mps 753 mmHg 17%
    14:00 +47°C° 0 mm 4 mps 753 mmHg 18%
    15:00 +47°C° 0 mm 5 mps 752 mmHg 20%
    16:00 +46°C° 0 mm 7 mps 752 mmHg 21%
    17:00 +45°C° 0 mm 6 mps 752 mmHg 23%
    18:00 +44°C° 0 mm 6 mps 752 mmHg 25%
    19:00 +42°C° 0 mm 5 mps 752 mmHg 28%
    20:00 +41°C° 0 mm 5 mps 752 mmHg 30%
    21:00 +40°C° 0 mm 4 mps 753 mmHg 32%
    22:00 +38°C° 0 mm 4 mps 753 mmHg 34%
    23:00 +38°C° 0 mm 4 mps 753 mmHg 34%

    28 May, Tuesday

    Time Temperature Precipitation Wind Pressure Humidity
    00:00 +38°C° 0 mm 4 mps 752 mmHg 35%
    01:00 +37°C° 0 mm 4 mps 752 mmHg 35%
    02:00 +37°C° 0 mm 3 mps 752 mmHg 33%
    03:00 +37°C° 0 mm 3 mps 752 mmHg 31%
    04:00 +37°C° 0 mm 2 mps 752 mmHg 29%
    05:00 +37°C° 0 mm 2 mps 752 mmHg 27%
    06:00 +37°C° 0 mm 1 mps 752 mmHg 25%
    07:00 +37°C° 0 mm 1 mps 753 mmHg 23%
    08:00 +39°C° 0 mm 2 mps 753 mmHg 23%
    09:00 +42°C° 0 mm 4 mps 753 mmHg 23%
    10:00 +44°C° 0 mm 6 mps 754 mmHg 23%
    11:00 +45°C° 0 mm 6 mps 753 mmHg 20%
    12:00 +46°C° 0 mm 6 mps 753 mmHg 18%
    13:00 +48°C° 0 mm 5 mps 753 mmHg 16%
    14:00 +47°C° 0 mm 6 mps 752 mmHg 16%
    15:00 +47°C° 0 mm 6 mps 752 mmHg 17%
    16:00 +47°C° 0 mm 6 mps 752 mmHg 18%
    17:00 +45°C° 0 mm 6 mps 752 mmHg 22%
    18:00 +42°C° 0 mm 6 mps 752 mmHg 25%
    19:00 +41°C° 0 mm 5 mps 752 mmHg 29%
    20:00 +40°C° 0 mm 5 mps 752 mmHg 31%
    21:00 +38°C° 0 mm 4 mps 753 mmHg 32%
    22:00 +38°C° 0 mm 3 mps 753 mmHg 33%
    23:00 +38°C° 0 mm 3 mps 753 mmHg 33%

    29 May, Wednesday

    Time Temperature Precipitation Wind Pressure Humidity
    00:00 +37°C° 0 mm 3 mps 752 mmHg 32%
    01:00 +37°C° 0 mm 2 mps 752 mmHg 31%
    02:00 +37°C° 0 mm 2 mps 752 mmHg 30%
    03:00 +35°C° 0 mm 1 mps 752 mmHg 29%
    04:00 +33°C° 0 mm 0 mps 752 mmHg 28%
    05:00 +36°C° 0 mm 1 mps 752 mmHg 26%
    06:00 +36°C° 0 mm 1 mps 753 mmHg 24%
    07:00 +38°C° 0 mm 2 mps 753 mmHg 22%
    08:00 +39°C° 0 mm 3 mps 753 mmHg 23%
    09:00 +42°C° 0 mm 4 mps 753 mmHg 24%
    10:00 +45°C° 0 mm 6 mps 754 mmHg 25%
    11:00 +46°C° 0 mm 6 mps 753 mmHg 23%
    12:00 +47°C° 0 mm 5 mps 753 mmHg 20%
    13:00 +48°C° 0 mm 5 mps 753 mmHg 18%
    14:00 +47°C° 0 mm 6 mps 752 mmHg 19%
    15:00 +46°C° 0 mm 6 mps 752 mmHg 21%
    16:00 +46°C° 0 mm 7 mps 751 mmHg 23%
    17:00 +44°C° 0 mm 6 mps 752 mmHg 26%
    18:00 +41°C° 0 mm 6 mps 752 mmHg 30%
    19:00 +39°C° 0 mm 5 mps 752 mmHg 33%
    20:00 +38°C° 0 mm 4 mps 752 mmHg 34%
    21:00 +38°C° 0 mm 3 mps 752 mmHg 34%
    22:00 +38°C° 0 mm 2 mps 753 mmHg 34%
    23:00 +37°C° 0 mm 2 mps 752 mmHg 34%

    30 May, Thursday

    Time Temperature Precipitation Wind Pressure Humidity
    00:00 +36°C° 0 mm 1 mps 752 mmHg 34%
    01:00 +35°C° 0 mm 1 mps 752 mmHg 35%
    02:00 +35°C° 0 mm 1 mps 751 mmHg 34%
    03:00 +36°C° 0 mm 2 mps 751 mmHg 33%
    04:00 +35°C° 0 mm 2 mps 751 mmHg 33%
    05:00 +36°C° 0 mm 2 mps 752 mmHg 30%
    06:00 +37°C° 0 mm 2 mps 752 mmHg 26%
    07:00 +37°C° 0 mm 2 mps 752 mmHg 23%
    08:00 +39°C° 0 mm 3 mps 753 mmHg 23%
    09:00 +42°C° 0 mm 5 mps 753 mmHg 23%
    10:00 +45°C° 0 mm 6 mps 753 mmHg 23%
    11:00 +46°C° 0 mm 6 mps 753 mmHg 20%
    12:00 +47°C° 0 mm 6 mps 752 mmHg 18%
    13:00 +48°C° 0 mm 6 mps 752 mmHg 16%
    14:00 +47°C° 0 mm 6 mps 752 mmHg 16%
    15:00 +47°C° 0 mm 7 mps 751 mmHg 17%
    16:00 +46°C° 0 mm 7 mps 751 mmHg 18%
    17:00 +44°C° 0 mm 6 mps 751 mmHg 24%
    18:00 +41°C° 0 mm 5 mps 751 mmHg 29%
    19:00 +38°C° 0 mm 4 mps 751 mmHg 34%
    20:00 +38°C° 0 mm 3 mps 751 mmHg 34%
    21:00 +38°C° 0 mm 3 mps 751 mmHg 34%
    22:00 +37°C° 0 mm 2 mps 752 mmHg 34%
    23:00 +37°C° 0 mm 2 mps 751 mmHg 33%
    Show more